#timestamp,LO_Frequency,Hit,StdDev 
1459360815.5,286047000.9,N
1459360835.3,286047002.5,N
1459360855.1,286047001.4,N
1459360875.9,286047003.7,N
1459360895.7,286047003.8,N
1459360915.5,286047002.2,N
1459360935.4,286046999.7,N
1459360955.2,286046999.9,N
1459360975.0,286047004.4,N
1459360975.9,286047004.4,N
1459360995.8,286047003.6,N
1459361015.6,286047003.0,N
1459361035.4,286047007.2,Y
1459361055.3,286047004.7,P
1459361075.1,286047008.4,P
1459361076.0,286047008.4,P
1459361095.8,286047006.4,N
1459361115.7,286047006.3,N
1459361135.5,286047008.5,Y
1459361155.3,286046999.8,P
1459361175.2,286047000.4,N
1459361195.9,286047000.5,N
1459361215.7,286046999.9,N
1459361235.6,286047004.0,N
1459361255.4,286047007.6,Y
1459361275.2,286047001.6,P
1459361295.1,286046996.5,P
1459361296.0,286046996.5,N
1459361315.8,286047000.3,N
1459361335.6,286047000.9,N
1459361355.5,286046997.0,N
1459361375.3,286046996.2,N
1459361395.1,286046996.0,N
1459361415.9,286046992.4,Y
1459361435.7,286046994.8,P
1459361455.5,286046994.0,P
1459361475.4,286046994.3,N
1459361495.2,286046991.9,Y
1459361515.0,286047001.2,P
1459361515.9,286047001.2,N
1459361535.8,286046998.8,N
1459361555.6,286046996.6,N
1459361575.4,286046996.9,N
1459361595.2,286046998.7,N
1459361615.1,286046998.7,N
1459361616.0,286046998.7,N
1459361635.8,286046996.9,N
1459361655.6,286046997.5,N
1459361675.5,286046994.7,Y
1459361695.3,286046993.5,P
1459361715.1,286046997.8,N
1459361735.9,286046997.8,N
1459361755.7,286046995.6,N
1459361775.5,286046997.3,N
1459361795.4,286046993.4,Y
1459361815.2,286047000.8,P
1459361835.0,286046998.3,N
1459361835.9,286046998.3,N
1459361855.8,286046995.1,Y
1459361875.6,286046999.1,P
1459361895.4,286046996.0,P
1459361915.3,286046993.9,P
1459361935.1,286046994.5,N
1459361955.8,286046993.9,N
1459361975.7,286046992.2,Y
1459361995.5,286046998.0,P
1459362015.3,286046993.5,P
1459362035.2,286046994.0,P
1459362055.9,286046991.3,Y
1459362075.7,286046996.3,P
1459362095.6,286046999.4,N
1459362115.4,286046997.1,N
1459362135.2,286046994.0,Y
1459362155.1,286046995.4,P
1459362156.0,286046995.4,P
1459362175.8,286046996.2,P
1459362195.7,286046997.4,Y
1459362215.5,286047001.8,P
1459362235.3,286047001.4,N
1459362255.1,286047007.5,N
1459362275.9,286047006.4,N
1459362295.7,286047009.1,N
1459362315.5,286047010.5,N
1459362335.4,286047008.7,N
1459362355.2,286047010.2,N
1459362375.0,286047009.3,N
1459362375.9,286047009.3,N
1459362395.8,286047013.7,Y
1459362415.6,286047005.9,P
1459362435.4,286047009.1,P
1459362455.3,286047011.2,P
1459362475.1,286047013.5,Y
1459362495.8,286047007.1,P
1459362515.7,286047003.0,P
1459362535.5,286047005.7,N
1459362555.3,286047006.0,Y
1459362575.2,286047000.4,P
1459362595.9,286046999.7,N
1459362615.7,286047001.8,N
1459362635.6,286047004.4,N
1459362655.4,286047004.8,N
1459362675.2,286047005.4,N
1459362695.1,286047007.1,Y
1459362696.0,286047007.1,P
1459362715.8,286047003.6,N
1459362735.6,286047005.2,N
1459362755.5,286047004.8,Y
1459362775.3,286046998.6,P
1459362795.1,286046996.9,N
1459362815.9,286046995.5,N
1459362835.7,286046993.3,N
1459362855.5,286046998.0,N
1459362875.4,286046996.1,N
1459362895.2,286046999.5,N
1459362915.0,286046995.8,N
1459362915.9,286046995.8,N
1459362935.7,286046996.0,N
1459362955.6,286046996.1,N
1459362975.4,286046993.3,N
1459362995.2,286046994.8,N
1459363015.1,286046996.0,N
1459363016.0,286046996.0,N
1459363035.8,286046990.4,Y
1459363055.6,286046993.4,P
1459363075.5,286046996.4,N
1459363095.3,286046993.7,P
1459363115.1,286046995.5,Y
1459363135.9,286047000.0,P
1459363155.7,286047002.0,N
1459363175.5,286047002.4,N
1459363195.4,286047000.6,N
1459363215.2,286047002.7,N
1459363235.0,286047002.9,N
1459363235.9,286047002.9,N
1459363255.8,286047007.2,N
1459363275.6,286047007.4,N
1459363295.4,286047008.5,N
1459363315.3,286047008.7,N
1459363335.1,286047010.2,N
1459363336.0,286047010.2,N
1459363355.8,286047009.8,N
1459363375.7,286047007.8,N
1459363395.5,286047012.2,N
1459363415.3,286047010.1,N
1459363435.1,286047009.7,N
1459363455.9,286047009.9,N
1459363475.7,286047008.4,N
1459363495.5,286047010.5,N
1459363515.4,286047009.9,N
1459363535.2,286047009.9,N
1459363555.0,286047013.6,Y
1459363555.9,286047013.6,P
1459363575.8,286047006.8,N
1459363595.6,286047006.9,N
1459363615.4,286047007.1,N
1459363635.3,286047007.9,N
1459363655.1,286047007.9,Y
1459363675.8,286047000.3,P
1459363695.7,286047003.8,N
1459363715.5,286047002.1,N
1459363735.3,286046999.2,N
1459363755.2,286046997.4,N
1459363775.9,286046999.0,N
1459363795.7,286047000.0,N
1459363815.6,286046998.6,N
1459363835.4,286046995.0,N
1459363855.2,286046997.0,N
1459363875.1,286046995.9,N
1459363876.0,286046995.9,N
1459363895.8,286046994.5,N
1459363915.6,286046992.8,N
1459363935.5,286046990.8,N
1459363955.3,286046988.1,N
1459363975.1,286046986.3,N
1459363995.8,286046986.9,N
1459364015.7,286046991.6,N
1459364035.5,286046989.2,N
1459364055.3,286046987.1,N
1459364075.2,286046986.3,N
1459364095.9,286046986.6,N
1459364115.7,286046986.4,N
1459364135.6,286046983.9,N
1459364155.4,286046983.1,N
1459364175.2,286046983.0,N
1459364195.1,286046983.1,N
1459364196.0,286046983.1,N
1459364215.8,286046984.7,N
1459364235.6,286046985.2,N
1459364255.5,286046982.8,N
1459364275.3,286046982.8,N
1459364295.1,286046982.0,Y
1459364315.9,286046990.0,P
1459364335.7,286046989.6,P
1459364355.5,286046988.6,P
1459364375.4,286046989.9,Y
1459364395.2,286047002.4,P
